CW8540 Weather Reports


Display with metric or nautical units.
time (UTC)temp
F
wind
direction
speed
MPH
gust
MPH
rain 1hr
in
rain 24hr
in
rain mn
in
humidity
%
barometer
mb
20260503024547 61 227 0.0 1.0 0.00 0.00 0.00 34 1010.0
20260503023046 62 0 0.0 0.0 0.00 0.00 0.00 36 1010.0
20260503021544 64 0 0.0 2.0 0.00 0.00 0.00 32 1010.0
20260503020047 66 228 0.0 4.0 0.00 0.00 0.00 32 1010.1
20260503014543 68 230 2.0 7.0 0.00 0.00 0.00 29 1010.1
20260503013040 67 233 3.0 9.0 0.00 0.00 0.00 31 1010.4
20260503011544 67 234 4.0 11.0 0.00 0.00 0.00 29 1010.6
20260503010044 67 273 5.0 9.0 0.00 0.00 0.00 29 1010.8
20260503004608 69 267 6.0 12.0 0.00 0.00 0.00 27 1011.1
20260503003041 69 284 5.0 9.0 0.00 0.00 0.00 26 1011.5
20260503001550 69 259 8.0 16.0 0.00 0.00 0.00 27 1011.7
20260503000055 69 236 8.0 16.0 0.00 0.00 0.00 27 1011.8
20260502234542 69 248 8.0 21.0 0.00 0.00 0.00 27 1011.9
20260502233059 69 216 7.0 13.0 0.00 0.00 0.00 27 1012.1
20260502231558 69 220 8.0 16.0 0.00 0.00 0.00 27 1012.4
20260502230045 69 249 8.0 14.0 0.00 0.00 0.00 26 1012.6
20260502224544 69 302 9.0 16.0 0.00 0.00 0.00 26 1013.0
20260502223046 68 247 3.0 11.0 0.00 0.00 0.00 27 1013.2
20260502221559 69 192 6.0 13.0 0.00 0.00 0.00 29 1013.2
20260502220049 68 254 6.0 12.0 0.00 0.00 0.00 28 1013.7
20260502214542 68 222 5.0 12.0 0.00 0.00 0.00 28 1013.9
20260502213050 67 271 4.0 15.0 0.00 0.00 0.00 28 1014.3
20260502211548 66 331 2.0 13.0 0.00 0.00 0.00 30 1014.5
20260502210044 66 224 6.0 17.0 0.00 0.00 0.00 29 1014.8
20260502204551 66 204 7.0 12.0 0.00 0.00 0.00 30 1015.0
20260502203055 65 225 6.0 13.0 0.00 0.00 0.00 29 1015.1
20260502201549 65 337 6.0 11.0 0.00 0.00 0.00 31 1015.4
20260502200043 65 238 5.0 18.0 0.00 0.00 0.00 31 1015.7
20260502194545 65 240 7.0 14.0 0.00 0.00 0.00 30 1015.7
20260502193042 64 254 8.0 15.0 0.00 0.00 0.00 31 1015.8
20260502191548 64 279 3.0 15.0 0.00 0.00 0.00 33 1016.2
20260502190051 63 282 4.0 20.0 0.00 0.00 0.00 34 1016.5
20260502184543 63 246 2.0 9.0 0.00 0.00 0.00 33 1016.8
20260502183043 63 257 7.0 14.0 0.00 0.00 0.00 34 1017.0
20260502181549 62 246 6.0 12.0 0.00 0.00 0.00 34 1017.1
20260502163042 59 65 2.0 7.0 0.00 0.00 0.00 38 1018.4
20260502161553 58 239 2.0 8.0 0.00 0.00 0.00 40 1018.5
20260502151547 54 292 1.0 6.0 0.00 0.00 0.00 51 1018.7
20260502123041 34 248 1.0 2.0 0.00 0.00 0.00 85 1018.6
20260502121546 33 0 0.0 3.0 0.00 0.00 0.00 85 1018.5
20260502114555 34 0 0.0 0.0 0.00 0.00 0.00 80 1018.4
20260502113045 36 0 0.0 1.0 0.00 0.00 0.00 81 1018.4
20260502111541 36 26 0.0 2.0 0.00 0.00 0.00 82 1018.3
20260502110042 37 0 0.0 1.0 0.00 0.00 0.00 82 1018.4
20260502104548 37 0 0.0 1.0 0.00 0.00 0.00 81 1018.4
20260502103041 37 0 0.0 1.0 0.00 0.00 0.00 80 1018.2
20260502101550 37 0 0.0 2.0 0.00 0.00 0.00 83 1018.3
20260502100104 36 0 0.0 3.0 0.00 0.00 0.00 85 1018.2
20260502070046 41 0 0.0 1.0 0.00 0.00 0.00 75 1017.5
20260502064548 41 0 0.0 1.0 0.00 0.00 0.00 73 1017.5
20260502063042 43 0 0.0 2.0 0.00 0.00 0.00 72 1017.5
20260502061540 45 0 0.0 1.0 0.00 0.00 0.00 69 1017.4
20260502060041 46 0 0.0 2.0 0.00 0.00 0.00 68 1017.1
20260502054547 47 0 0.0 2.0 0.00 0.00 0.00 69 1016.8
20260502053044 46 337 0.0 2.0 0.00 0.00 0.00 72 1016.7
20260502051600 44 314 0.0 2.0 0.00 0.00 0.00 74 1016.6
20260502050044 45 317 1.0 2.0 0.00 0.00 0.00 71 1016.5
20260502044541 46 317 0.0 2.0 0.00 0.00 0.00 71 1016.5
20260502043045 47 317 0.0 1.0 0.00 0.00 0.00 69 1016.4
20260502041547 48 317 0.0 1.0 0.00 0.00 0.00 68 1016.3
20260502040045 49 317 0.0 2.0 0.00 0.00 0.00 67 1016.2
20260502034546 50 0 0.0 1.0 0.00 0.00 0.00 66 1016.0
20260502033050 51 0 0.0 1.0 0.00 0.00 0.00 65 1015.9
20260502031559 53 317 0.0 1.0 0.00 0.00 0.00 63 1015.8
20260502030042 53 0 0.0 2.0 0.00 0.00 0.00 63 1015.5